SL-16 DEB

Satellite information

Favourite Embed

Satellite Type and Status

DEBRISIN ORBIT

Key statistics

Satellite SL-16 DEB at a glance.

Uptime

6583

Days in orbit

Revolutions

≈ 13.7

Per day

Orbit

LEO

Low Earth Orbit

Inclination

71.0

Latest

Satellite identification and parameters

Extended collection of information and parameters for SL-16 DEB.

Object identification

Identified? True

Debris? True

Object name: SL-16 DEB

International designator: 2007-029E

Object number (NORAD): 31796

Object ID (CCSDS): 31796

Country: COMMONWEALTH OF INDEPENDENT STATES (CIS)

Current information (Y/N): Y

RCS size: SMALL

Orbital parameters

Period: 105.2 minutes

Inclination: 71.0451 deg

SMA: 7381.945 km

Apoapsis: 1161.64 km

Periapsis: 845.98 km

RAAN: 313.1874 deg

Eccentricy: 0.0213805

Argument of periapsis: 144.4762 deg

Mean anomaly: 306.2333 deg

Mean motion: 13.68820634 rev/day

Mean motion (dot): 0.00000048 rev/day2

B* drag term: 0.000088188 1/REarth

Two-line elements (TLE)

Creation date: July 6, 2025, 6:05 p.m.

Reference frame: TEME

Reference center: EARTH

Epoch: July 6, 2025, 2:46 p.m. UTC

TLE line 0: 0 SL-16 DEB

TLE line 1: 1 31796U 07029E 25187.61546406 .00000048 00000-0 88188-4 0 9998

TLE line 2: 2 31796 71.0451 313.1874 0213805 144.4762 306.2333 13.68820634900145

Live tracking on map

Real-time ground track for satellite SL-16 DEB.

In-orbit conjunctions

A list of the most updated potential collisions computed for object SL-16 DEB.

Target Orbit TCA Probability of collision Miss distance Type
INTERCOSMOS 25 HEO 2024-09-27 15:21:54 0.0003808595 715.0 (m) PAYLOAD

Associated space launch

Second generation ELING satellite

SL-16 DEB was lifted into orbit during the mission ‘Zenit 2M | Tselina-2 23’, on board a Zenit 2M space rocket.

The launch took place on June 29, 2007, 10 a.m. from 45/1.

For more information about the launch, click the button.

Launch to space Zenit 2M | Tselina-2 23
Zenit 2M | Tselina-2 23

Agency: N/A

Status: Launch Successful

Launch date: June 29, 2007, 10 a.m. UTC

Rocket: Zenit 2M

Launch pad: 45/1

Location: Baikonur Cosmodrome, Republic of Kazakhstan

...

Latest news about this satellite

There are no fresh news available about this satellite. Check back as we update our databases every day.


Newsletter sign-up

Weekly statistics, charts and insights to help you stay on top of the space industry.